Preview of NWS' New Version of Forecast
This preview is not operational and should not be used for support decisions.

Regional Weather Roundup (RWR)

Issued by National Weather Service (NWS)

                            
000
ASUS43 KBIS 211902
RWRND 

NORTH DAKOTA REGIONAL WEATHER ROUNDUP
NATIONAL WEATHER SERVICE BISMARCK ND
200 PM CDT SUN APR 21 2019

NOTE: "FAIR" INDICATES FEW OR NO CLOUDS BELOW 12,000 FEET WITH NO
SIGNIFICANT WEATHER AND/OR OBSTRUCTIONS TO VISIBILITY.


NDZ001>003-009>011-017-212000-
NORTHWEST NORTH DAKOTA
  
CITY           SKY/WX    TMP DP  RH WIND       PRES   REMARKS
WILLISTON      PTSUNNY   60  30  32 VRB3      30.10S                  
MINOT          CLOUDY    62  34  35 W5        30.05F                  
MINOT AFB      CLOUDY    62  33  34 CALM      30.04S                  
$$
 
NDZ018>021-031>035-040>046-212000-
SOUTHWEST NORTH DAKOTA
  
CITY           SKY/WX    TMP DP  RH WIND       PRES   REMARKS
BISMARCK       CLOUDY    56  39  53 NE14      30.04R                  
DICKINSON      CLOUDY    52  39  61 NE13      30.07R                  
GARRISON         N/A     59  33  37 VRB6      30.05S                  
HETTINGER ARPT LGT RAIN  47  42  83 NE14      30.06R                  
$$
 
NDZ004>008-012>016-024-026-027-054-212000-
NORTHEAST NORTH DAKOTA
  
CITY           SKY/WX    TMP DP  RH WIND       PRES   REMARKS
GRAND FORKS    CLOUDY    61  38  42 NE10      30.00S                  
DEVILS LAKE    CLOUDY    59  37  44 E10       30.05R                  
$$
 
NDZ022-023-025-028>030-036>039-047>053-212000-
SOUTHEAST NORTH DAKOTA
  
CITY           SKY/WX    TMP DP  RH WIND       PRES   REMARKS
FARGO          MOSUNNY   62  41  46 NE23G35   29.95R                  
JAMESTOWN      CLOUDY    57  40  52 NE18      29.98F                  
$$